Seldovia, AK

10:15 AM AKDT on July 26, 2017 (GMT -0800)
Seldovia

Weather History for PASO - March, 2014

Change the Weather History Date:

Saturday, March 1, 2014

  Actual Average (PAHO) Record (PAHO)
Temperature  
Mean Temperature 31 °F -  
Max Temperature 37 °F 33 °F 46 °F (1943)
Min Temperature 25 °F 18 °F -16 °F (1956)
Degree Days  
Heating Degree Days 34    
Moisture  
Dew Point 28 °F    
Average Humidity 94    
Maximum Humidity 100    
Minimum Humidity 83    
Precipitation  
Precipitation 0.00 in - - ()
Sea Level Pressure  
Sea Level Pressure 29.97 in    
Wind  
Wind Speed 0 mph (North)    
Max Wind Speed 7 mph    
Max Gust Speed -    
Visibility 10 miles    
Events      
Averages and records for this station are not official NWS values.
T = Trace of Precipitation, MM = Missing Value Source: NWS Daily Summary

Daily Weather History Graph

Daily Weather History Graph

Search for Another Location

Airport or City:

Trip Planner

Search our weather history database for the weather conditions in past years. The results will help you decide how hot, cold, wet, or windy it might be!

Date:

Astronomy

Mar. 01, 2014 Rise Set
Actual Time 8:03 AM AKST 6:35 PM AKST
Civil Twilight 7:22 AM AKST 7:17 PM AKST
Nautical Twilight 6:35 AM AKST 8:04 PM AKST
Astronomical Twilight 5:47 AM AKST 8:52 PM AKST
Moon 7:48 AM AKST (3/1) 7:58 PM AKST (3/1)
Length of Visible Light 11h 54m
Length of Day
10h 32m
New Moon, 0% of the Moon is Illuminated
Mar 1
New Moon
Mar 8
First Quarter
Mar 16
Full
Mar 23
Last Quarter
Mar 30
New

Hourly Weather History & Observations

Time (AKST) Temp. Windchill Dew Point Humidity Pressure Visibility Wind Dir Wind Speed Gust Speed Precip Events Conditions
12:53 AM 28.0 °F - 27.0 °F 96% 29.99 in 10.0 mi Calm Calm - N/A   Clear
1:53 AM 28.0 °F - 27.0 °F 96% 29.99 in 10.0 mi Calm Calm - N/A   Clear
2:53 AM 28.0 °F - 27.0 °F 96% 29.99 in 10.0 mi Calm Calm - N/A   Clear
3:53 AM 28.0 °F - 27.0 °F 96% 29.98 in 10.0 mi Calm Calm - N/A   Clear
4:53 AM 27.0 °F - 26.1 °F 96% 29.97 in 10.0 mi Calm Calm - N/A   Clear
5:53 AM 27.0 °F - 26.1 °F 96% 29.97 in 10.0 mi Calm Calm - N/A   Clear
6:53 AM 26.1 °F - 25.0 °F 96% 29.96 in 10.0 mi Calm Calm - N/A   Clear
7:53 AM 25.0 °F - 24.1 °F 96% 29.97 in 10.0 mi Calm Calm - N/A   Clear
8:53 AM 25.0 °F - 24.1 °F 96% 29.97 in 10.0 mi Calm Calm - N/A   Clear
9:53 AM 26.1 °F - 25.0 °F 96% 29.97 in 10.0 mi Calm Calm - N/A   Clear
10:53 AM 30.0 °F - 30.0 °F 100% 29.97 in 10.0 mi Calm Calm - N/A   Clear
11:53 AM 33.1 °F - 32.0 °F 96% 29.98 in 10.0 mi Calm Calm - N/A   Clear
12:53 PM 36.0 °F - 32.0 °F 86% 29.98 in 10.0 mi Calm Calm - N/A   Clear
1:53 PM 37.0 °F - 34.0 °F 89% 29.97 in 10.0 mi Calm Calm - N/A   Clear
2:53 PM 36.0 °F - 33.1 °F 89% 29.97 in 10.0 mi Calm Calm - N/A   Clear
3:53 PM 37.9 °F 32.7 °F 33.1 °F 83% 29.97 in 10.0 mi North 6.9 mph - N/A   Clear
4:53 PM 36.0 °F - 33.1 °F 89% 29.96 in 10.0 mi Calm Calm - N/A   Clear
5:53 PM 34.0 °F - 32.0 °F 92% 29.96 in 10.0 mi Calm Calm - N/A   Clear
6:53 PM 30.9 °F - 30.0 °F 96% 29.96 in 10.0 mi Calm Calm - N/A   Clear
7:53 PM 28.9 °F - 28.0 °F 96% 29.96 in 10.0 mi Calm Calm - N/A   Clear
8:53 PM 28.0 °F - 27.0 °F 96% 29.96 in 10.0 mi Calm Calm - N/A   Clear
9:53 PM 27.0 °F - 26.1 °F 96% 29.96 in 9.0 mi Calm Calm - N/A   Clear
10:53 PM 27.0 °F - 25.0 °F 92% 29.96 in 10.0 mi Calm Calm - N/A   Clear
11:53 PM 26.1 °F - 24.1 °F 92% 29.95 in 10.0 mi Calm Calm - N/A   Clear